Weather History for KHAI - January, 2014

Change the Weather History Date:

Wednesday, January 8, 2014

  Actual Average Record
Temperature  
Mean Temperature 1 °F -  
Max Temperature 18 °F 27 °F 60 °F (1965)
Min Temperature -16 °F 11 °F -16 °F (2014)
Degree Days  
Heating Degree Days 64    
Moisture  
Dew Point -7 °F    
Average Humidity 76    
Maximum Humidity 85    
Minimum Humidity 61    
Precipitation  
Precipitation 0.00 in - - ()
Sea Level Pressure  
Sea Level Pressure 30.37 in    
Wind  
Wind Speed 2 mph (SSW)    
Max Wind Speed 7 mph    
Max Gust Speed -    
Visibility 9 miles    
Events      
Averages and records for this station are not official NWS values.
T = Trace of Precipitation, MM = Missing Value Source: NWS Daily Summary

Daily Weather History Graph

Daily Weather History Graph

Search for Another Location

Airport or City:

Trip Planner

Search our weather history database for the weather conditions in past years. The results will help you decide how hot, cold, wet, or windy it might be!

Date:

Astronomy

Jan. 08, 2014 Rise Set
Actual Time 8:10 AM EST 5:28 PM EST
Civil Twilight 7:38 AM EST 5:59 PM EST
Nautical Twilight 7:03 AM EST 6:34 PM EST
Astronomical Twilight 6:30 AM EST 7:08 PM EST
Moon 12:23 PM EST (1/8) 1:11 AM EST (1/8)
Length of Visible Light 10h 21m
Length of Day
9h 18m
First Quarter, 56% of the Moon is Illuminated
Jan 8
First Quarter
Jan 15
Full
Jan 24
Last Quarter
Jan 30
New
Feb 6
First Quarter

Hourly Weather History & Observations

Time (EST) Temp. Windchill Dew Point Humidity Pressure Visibility Wind Dir Wind Speed Gust Speed Precip Events Conditions
12:15 AM -5.8 °F -16.7 °F -10.7 °F 79% 30.30 in 10.0 mi South 4.6 mph - N/A   Clear
12:35 AM -6.5 °F -17.5 °F -11.2 °F 80% 30.30 in 10.0 mi South 4.6 mph - N/A   Clear
12:55 AM -5.3 °F - -9.8 °F 81% 30.30 in 10.0 mi Calm Calm - N/A   Clear
1:14 AM -6.7 °F - -11.4 °F 80% 30.30 in 10.0 mi Calm Calm - N/A   Clear
1:34 AM -8.3 °F - -13.2 °F 79% 30.29 in 10.0 mi Calm Calm - N/A   Clear
1:55 AM -8.1 °F - -13.2 °F 79% 30.29 in 10.0 mi Calm Calm - N/A   Clear
2:15 AM -13.7 °F - -19.5 °F 75% 30.30 in 10.0 mi Calm Calm - N/A   Clear
2:35 AM -12.6 °F - -18.6 °F 75% 30.30 in 10.0 mi Calm Calm - N/A   Clear
2:55 AM -12.3 °F - -18.0 °F 76% 30.31 in 10.0 mi Calm Calm - N/A   Clear
3:15 AM -11.2 °F - -16.8 °F 76% 30.31 in 10.0 mi Calm Calm - N/A   Clear
3:35 AM -12.1 °F - -18.0 °F 75% 30.32 in 10.0 mi Calm Calm - N/A   Clear
3:55 AM -11.4 °F - -17.1 °F 76% 30.32 in 10.0 mi Calm Calm - N/A   Clear
4:14 AM -13.5 °F - -19.5 °F 75% 30.32 in 10.0 mi Calm Calm - N/A   Clear
4:35 AM -15.7 °F - -21.8 °F 74% 30.31 in 10.0 mi Calm Calm - N/A   Clear
4:55 AM -14.3 °F - -20.2 °F 75% 30.31 in 10.0 mi Calm Calm - N/A   Clear
5:14 AM -13.7 °F - -19.7 °F 75% 30.31 in 10.0 mi Calm Calm - N/A   Clear
5:35 AM -16.2 °F - -22.7 °F 72% 30.31 in 10.0 mi Calm Calm - N/A   Clear
5:55 AM -15.2 °F - -21.5 °F 73% 30.31 in 10.0 mi Calm Calm - N/A   Clear
6:14 AM -14.1 °F - -20.2 °F 74% 30.30 in 10.0 mi Calm Calm - N/A   Clear
6:35 AM -15.2 °F - -21.5 °F 73% 30.30 in 10.0 mi Calm Calm - N/A   Clear
6:55 AM -14.8 °F - -20.9 °F 74% 30.31 in 10.0 mi Calm Calm - N/A   Clear
7:15 AM -13.9 °F - -20.0 °F 74% 30.32 in 10.0 mi Calm Calm - N/A   Clear
7:35 AM -12.6 °F - -18.8 °F 74% 30.32 in 10.0 mi Calm Calm - N/A   Clear
7:55 AM -13.9 °F - -20.2 °F 73% 30.32 in 10.0 mi Calm Calm - N/A   Clear
8:15 AM -13.9 °F -23.7 °F -20.2 °F 73% 30.33 in 10.0 mi SSW 3.5 mph - N/A   Clear
8:35 AM -13.2 °F - -18.8 °F 76% 30.33 in 10.0 mi Calm Calm - N/A   Clear
8:54 AM -12.3 °F - -18.4 °F 74% 30.34 in 7.0 mi Calm Calm - N/A   Clear
9:15 AM -11.7 °F - -17.7 °F 75% 30.35 in 3.0 mi Calm Calm - N/A   Haze
9:35 AM -9.8 °F - -15.5 °F 76% 30.35 in 10.0 mi Calm Calm - N/A   Clear
9:54 AM -7.1 °F -15.9 °F -12.5 °F 77% 30.37 in 10.0 mi SSW 3.5 mph - N/A   Clear
10:15 AM -2.4 °F -12.7 °F -7.2 °F 80% 30.38 in 10.0 mi South 4.6 mph - N/A   Clear
10:35 AM 1.8 °F -7.8 °F -2.7 °F 81% 30.38 in 7.0 mi SSW 4.6 mph - N/A   Clear
10:54 AM 3.0 °F -4.4 °F -1.3 °F 82% 30.38 in 10.0 mi SSW 3.5 mph - N/A   Clear
11:15 AM 4.8 °F - 0.5 °F 82% 30.38 in 10.0 mi Calm Calm - N/A   Scattered Clouds
11:35 AM 5.7 °F -1.3 °F 1.6 °F 83% 30.37 in 7.0 mi South 3.5 mph - N/A   Scattered Clouds
11:55 AM 7.7 °F -0.9 °F 3.2 °F 82% 30.36 in 10.0 mi South 4.6 mph - N/A   Scattered Clouds
12:15 PM 8.6 °F 0.1 °F 2.1 °F 75% 30.35 in 10.0 mi South 4.6 mph - N/A   Scattered Clouds
12:35 PM 10.2 °F 3.8 °F 2.7 °F 72% 30.35 in 10.0 mi South 3.5 mph - N/A   Clear
12:55 PM 11.3 °F 5.1 °F 3.0 °F 69% 30.34 in 10.0 mi South 3.5 mph - N/A   Clear
1:15 PM 12.2 °F - 3.2 °F 67% 30.34 in 10.0 mi Calm Calm - N/A   Clear
1:34 PM 13.1 °F 7.1 °F 3.6 °F 66% 30.35 in 10.0 mi South 3.5 mph - N/A   Clear
1:55 PM 13.8 °F 8.0 °F 4.1 °F 65% 30.34 in 10.0 mi South 3.5 mph - N/A   Clear
2:15 PM 15.8 °F 8.6 °F 5.4 °F 63% 30.34 in 10.0 mi SSW 4.6 mph - N/A   Clear
2:35 PM 15.3 °F 9.6 °F 5.5 °F 65% 30.34 in 10.0 mi South 3.5 mph - N/A   Clear
2:55 PM 15.8 °F - 5.5 °F 64% 30.34 in 10.0 mi Calm Calm - N/A   Clear
3:14 PM 17.2 °F - 5.9 °F 61% 30.35 in 10.0 mi Calm Calm - N/A   Clear
3:35 PM 17.4 °F - 7.0 °F 64% 30.35 in 10.0 mi Calm Calm - N/A   Scattered Clouds
3:55 PM 18.1 °F 8.9 °F 8.4 °F 66% 30.36 in 10.0 mi WNW 6.9 mph - N/A   Scattered Clouds
4:14 PM 17.2 °F 8.9 °F 7.9 °F 67% 30.37 in 10.0 mi WNW 5.8 mph - N/A   Clear
4:35 PM 16.3 °F 7.8 °F 7.7 °F 69% 30.39 in 10.0 mi WNW 5.8 mph - N/A   Clear
4:55 PM 15.1 °F 6.4 °F 6.8 °F 70% 30.39 in 10.0 mi West 5.8 mph - N/A   Clear
5:14 PM 15.3 °F - 7.5 °F 71% 30.39 in 10.0 mi Calm Calm - N/A   Clear
5:35 PM 14.5 °F 8.8 °F 6.6 °F 71% 30.40 in 10.0 mi West 3.5 mph - N/A   Clear
5:54 PM 9.3 °F - 3.2 °F 76% 30.41 in 10.0 mi Calm Calm - N/A   Clear
6:15 PM 9.7 °F - 5.2 °F 82% 30.41 in 10.0 mi Calm Calm - N/A   Clear
6:35 PM 7.7 °F - 3.6 °F 83% 30.42 in 10.0 mi Calm Calm - N/A   Clear
6:55 PM 6.8 °F - 3.2 °F 85% 30.42 in 10.0 mi Calm Calm - N/A   Clear
7:15 PM 6.6 °F -0.3 °F 3.0 °F 85% 30.43 in 10.0 mi SSW 3.5 mph - N/A   Scattered Clouds
7:35 PM 3.4 °F - -0.6 °F 84% 30.43 in 7.0 mi Calm Calm - N/A   Scattered Clouds
7:55 PM 6.1 °F - 2.3 °F 84% 30.44 in 7.0 mi Calm Calm - N/A   Scattered Clouds
8:15 PM 3.0 °F - -1.5 °F 82% 30.44 in 7.0 mi Calm Calm - N/A   Clear
8:35 PM 3.0 °F - -1.1 °F 83% 30.45 in 4.0 mi Calm Calm - N/A   Clear
8:55 PM 3.4 °F - -0.8 °F 83% 30.45 in 4.0 mi Calm Calm - N/A   Clear
9:15 PM 0.9 °F - -3.8 °F 81% 30.46 in 7.0 mi Calm Calm - N/A   Scattered Clouds
9:35 PM 1.2 °F - -3.3 °F 81% 30.47 in 7.0 mi Calm Calm - N/A   Clear
9:55 PM 0.5 °F - -4.0 °F 81% 30.47 in 10.0 mi Calm Calm - N/A   Clear
10:15 PM 0.5 °F - -4.2 °F 81% 30.47 in 7.0 mi Calm Calm - N/A   Clear
10:34 PM -1.1 °F - -5.8 °F 81% 30.48 in 5.0 mi Calm Calm - N/A   Haze
10:55 PM -0.9 °F - -5.8 °F 80% 30.48 in 7.0 mi Calm Calm - N/A   Clear
11:15 PM -3.8 °F - -9.2 °F 78% 30.49 in 7.0 mi Calm Calm - N/A   Clear
11:34 PM -2.4 °F - -7.1 °F 80% 30.49 in 7.0 mi Calm Calm - N/A   Clear
11:55 PM -3.1 °F - -7.8 °F 80% 30.49 in 7.0 mi Calm Calm - N/A   Scattered Clouds